Back to catalog

STARLINK-3110

AliveCommunicationsVLEO
NORAD 49420·PAYLOAD·🇺🇸 United States

Launched Nov 13, 2021 from Cape Canaveral Space Force Station

Loading…

Next Passes (next 24 hours)

TLE

FreshSource: CelesTrak SupGP

Epoch: Sep 14, 2026, 21:57 UTC

1 49420C 21104N   26257.91506944  .00034891  00000+0  10313-2 0  2578
2 49420  53.1582  85.7684 0001213  83.4409  60.0665 15.34360940    17

Track STARLINK-3110 in real time with AllMySat

Download on the App Store